SCP
0 0 -0 -0 -0 -1 -1 -1 -1 -1 -1 -0 -0 -1 -1 -0 -0 -0 -0 -0 -0 -0 -0 -0 -0 0 0 -0 -0 -0 0 0 0 0 0 0 0 0 0 0 0 0 0
0 -1 -1 -0 -1 -1 -1 -1 -1 -0 -0 -0 -0 -0 -0 -0 -0 -0 -0 -0 -0 -0 -0 -0 0 0 -0 -0 -0 -0 0 0 0 0 0 0 0 0 0 0 0 0 0
0 -1 -1 -0 -1 -1 -1 -1 -1 -1 -0 -0 -0 -0 -0 -0 -0 -0 -0 -0 -0 -0 -0 -0 -0 -0 -0 -0 0 0 0 0 0 0 0 0 0 0 0 0 0 0 0
0 0 -0 -1 -1 -1 -1 -1 -1 -0 -0 -0 -0 -0 -0 -0 -0 -0 -0 -0 -0 -0 -0 -0 -0 -0 -0 0 0 0 0 0 0 0 0 0 0 0 0 0 0 0 0
0 -0 -0 -1 -1 -1 -1 -1 -0 -0 -0 -0 -0 -0 -0 -0 -0 -0 -0 -0 -0 -0 -0 -0 -0 -0 0 0 0 0 0 0 0 0 0 0 0 0 0 0 -0 -0 0
-0 -0 -1 -1 -1 -1 -1 -1 -0 -0 -0 -0 -0 -0 -0 -0 -0 -0 -0 -0 -0 -0 -0 -0 -0 0 0 0 0 0 0 0 0 0 0 0 0 0 0 0 0 0 0
0 0 0 -1 -1 -1 -1 -1 -0 -0 -0 -0 -0 -0 -0 -0 -0 -0 -0 -0 -0 -0 -0 -0 0 0 0 0 0 0 0 0 0 0 0 0 0 -0 0 0 0 0 0
1 0 0 -0 -0 -0 -1 -1 -0 -0 -0 -0 -0 -0 -0 -0 -0 -0 -0 -0 -0 -0 -0 -0 0 0 0 0 0 0 0 0 0 0 0 0 0 0 0 0 0 0 0
1 1 1 1 0 -0 -0 -0 -0 -0 -0 -0 -0 -0 -0 -0 -0 -0 -0 -0 -0 0 0 0 0 0 0 0 0 0 0 0 0 0 0 0 0 0 0 0 0 0 0
2 2 1 1 0 0 0 -0 -0 -0 -0 -0 -0 -0 -0 -0 -0 -0 0 0 0 0 0 0 0 0 0 0 0 0 0 0 0 0 0 0 0 0 0 1 1 0 0
2 2 1 0 1 0 0 0 -0 -0 -0 -0 0 -0 0 0 -0 -0 -0 -0 -0 0 0 0 0 0 0 0 0 0 0 0 0 0 0 0 0 0 0 1 1 0 1
1 1 1 1 0 0 0 0 0 0 0 0 0 0 0 -0 -0 -0 -0 -0 -0 -0 -0 0 0 0 0 0 0 0 0 0 0 0 0 0 0 0 0 1 1 1 1
1 2 1 1 1 0 0 0 0 0 0 0 0 0 -0 -0 -0 -0 -0 -0 -0 -0 -0 0 0 0 0 0 0 0 0 0 0 0 0 0 1 2 1 1 1 1 1
-0 1 1 1 1 1 1 0 0 0 0 0 0 0 0 0 -0 -0 -0 -0 0 0 0 0 0 0 0 0 0 0 0 0 0 0 0 0 1 2 2 1 1 1 1
-0 -0 1 1 1 1 1 0 0 0 0 0 0 0 0 0 -0 0 -0 0 0 0 0 0 0 0 0 0 0 0 0 0 0 0 0 0 1 2 2 3 3 2 1
-0 -0 -0 1 2 2 1 0 0 0 0 0 0 0 0 0 0 0 0 0 0 0 0 0 0 0 0 0 0 0 0 0 0 0 0 0 0 0 0 0 0 0 0
-0 -0 0 0 2 1 0 0 0 0 0 0 0 0 0 0 0 0 0 0 0 0 0 0 0 0 0 0 0 0 0 0 0 0 0 0 0 0 0 0 0 0 0
-0 0 0 0 0 0 0 0 0 0 0 0 0 0 0 0 0 0 0 0 0 0 0 0 0 0 0 0 0 0 0 0 0 0 0 0 0 0 0 0 0 0 0
0 1 0 0 0 0 0 0 0 0 0 0 0 0 0 0 0 0 0 0 0 0 0 0 0 0 0 0 0 0 0 0 0 0 0 0 0 0 0 0 0 0 0
1 1 0 0 0 0 0 0 0 0 0 0 0 0 0 0 0 0 0 0 0 0 0 0 0 0 0 0 0 0 0 0 0 0 0 0 0 0 0 0 0 0 0
1 3 2 1 0 0 1 1 0 0 0 0 0 0 0 0 0 0 0 0 0 0 0 0 0 0 0 0 0 0 0 0 0 0 0 0 0 0 0 0 0 0 0
1 3 1 0 0 1 1 1 1 0 0 0 0 0 0 0 0 0 0 0 0 0 0 0 0 0 0 0 0 0 0 0 0 0 0 0 0 0 0 0 0 0 0
1 1 3 1 1 1 1 2 2 2 2 1 0 0 0 1 0 0 0 0 0 0 0 0 0 0 0 0 0 0 0 0 0 0 0 0 0 0 0 0 0 0 0
1 1 2 0 0 1 1 2 1 2 2 1 1 1 1 0 0 0 0 0 0 0 0 0 0 0 0 0 0 0 0 0 0 0 0 0 0 0 0 0 0 0 0
2 2 2 1 0 1 2 1 1 2 1 1 1 0 0 0 0 0 0 0 0 0 0 0 0 0 0 0 0 0 0 0 0 0 0 0 0 0 0 0 0 0 0
0 4 2 1 1 1 2 1 1 1 1 1 0 0 0 0 0 0 0 0 0 0 0 0 0 0 0 0 0 0 0 0 0 0 0 0 0 0 0 0 0 0 0
Wind_Speed_500mb
46 53 59 53 50 45 42 39 33 27 28 30 34 35 33 32 33 32 32 35 35 39 38 33 29 27 24 21 18 14 15 17 19 22 25 26 28 30 28 25 22 16 10
49 65 66 60 55 49 45 40 37 31 30 31 35 36 36 36 35 35 35 34 37 38 33 29 25 23 22 20 17 16 17 18 21 25 27 26 25 24 24 24 23 20 19
58 72 70 64 59 53 49 43 38 35 33 31 35 37 38 39 39 40 37 37 37 34 30 27 24 23 21 19 16 14 16 18 21 24 20 17 15 14 14 17 20 23 25
60 76 75 69 63 57 51 46 41 38 36 33 34 37 40 39 39 40 39 39 36 32 28 23 21 19 18 16 15 13 15 21 23 22 16 14 10 6 7 10 16 20 27
69 84 78 73 67 61 56 50 45 43 38 35 35 38 39 40 39 40 40 38 36 32 27 22 19 17 16 15 15 15 15 22 21 17 12 9 6 4 2 3 11 16 22
79 89 83 77 72 63 57 52 48 46 42 38 37 38 39 40 39 38 39 37 34 29 26 21 18 16 15 13 13 13 14 18 20 17 9 1 8 7 5 4 10 15 20
90 87 82 80 74 66 60 55 52 50 46 42 39 39 39 40 39 37 35 32 30 27 23 19 16 13 11 10 9 10 12 17 20 18 10 6 4 4 7 7 11 17 23
90 91 86 81 73 68 63 57 54 51 49 45 41 40 40 41 39 36 33 30 26 22 19 17 13 9 7 7 7 8 10 14 21 24 18 11 11 9 4 9 14 19 24
91 92 89 83 75 70 63 58 55 52 51 48 44 41 41 41 38 35 31 27 22 19 16 13 10 7 6 7 6 6 6 9 13 17 17 14 15 12 11 14 16 20 24
94 90 90 85 81 76 68 59 56 53 50 47 44 42 41 40 38 34 28 24 21 16 11 9 6 6 7 8 12 11 9 4 2 5 6 10 19 22 20 14 17 22 25
89 90 89 89 85 78 71 64 58 52 50 46 43 42 42 41 38 33 27 21 15 11 8 6 6 5 5 11 11 10 7 6 9 8 8 9 14 19 18 12 19 23 27
93 94 93 91 88 83 77 69 62 57 53 49 46 45 42 39 36 32 26 19 14 9 6 5 4 3 7 10 3 5 2 3 9 6 9 6 9 8 10 16 18 25 28
86 96 95 91 88 86 82 75 67 60 54 48 44 41 38 38 37 32 25 18 12 5 4 6 6 10 9 3 3 4 5 6 10 14 15 17 16 6 13 16 20 26 29
52 95 96 92 89 87 82 78 71 63 56 50 45 42 42 40 36 30 22 14 9 8 6 9 5 3 3 8 8 7 5 12 19 14 11 20 22 19 10 18 23 28 33
51 71 92 94 89 87 84 77 70 60 51 45 43 41 39 37 34 28 24 18 12 13 11 7 1 4 7 10 6 12 18 24 27 26 28 26 25 20 18 22 30 34 36
67 47 74 88 87 82 77 71 62 55 46 41 39 37 38 32 34 31 23 18 14 15 7 1 7 7 10 11 12 15 18 23 31 30 27 21 19 19 27 34 24 29 36
57 52 57 86 83 78 70 62 56 51 48 43 38 37 35 31 30 28 20 11 10 9 5 4 3 4 7 13 19 23 27 32 32 28 29 28 29 22 25 27 29 36 41
38 59 54 89 86 76 69 63 56 49 44 39 36 35 36 31 25 21 16 17 11 13 7 10 10 10 15 20 20 27 32 26 23 28 29 26 28 34 27 28 32 39 41
21 68 67 89 89 78 69 64 57 50 43 38 35 35 38 30 25 22 19 20 21 13 13 15 16 20 26 29 33 34 29 22 16 17 22 22 18 23 28 32 38 41 38
25 55 70 101 91 78 67 62 54 49 47 42 37 36 38 30 30 25 22 16 15 12 17 17 21 26 30 32 31 28 19 17 20 20 16 15 21 26 33 39 38 34 32
30 62 106 95 87 80 74 66 57 49 46 44 39 30 37 34 30 28 26 21 16 15 20 25 26 30 31 29 17 6 3 9 13 12 16 20 28 34 36 33 28 27 29
25 44 80 89 88 85 84 75 62 52 44 44 39 32 30 30 29 28 21 22 15 16 21 24 23 21 16 6 4 4 4 12 20 23 27 24 34 34 28 26 27 31 37
31 39 65 91 94 91 77 62 55 52 45 41 42 38 36 28 28 26 20 18 18 17 20 20 17 7 4 3 4 4 5 8 17 23 20 23 31 23 21 25 31 37 47
39 42 56 96 90 79 79 70 64 64 58 59 48 38 37 30 32 24 19 21 21 21 20 9 4 6 4 5 10 10 11 13 9 14 16 24 27 20 19 28 30 39 45
30 53 53 66 77 76 85 72 62 67 64 68 49 46 44 42 34 24 20 18 18 19 8 7 8 5 5 7 9 10 13 12 14 14 23 36 25 26 20 29 27 45 50
34 47 62 69 71 81 85 69 62 66 66 55 55 56 57 44 34 29 21 17 17 11 9 10 7 7 4 8 10 9 8 7 10 12 20 30 37 38 26 36 31 48 53
Wind_Direction_500mb
175 185 177 177 181 181 178 175 176 174 170 171 172 172 169 164 156 153 150 145 143 143 144 141 135 131 132 132 130 125 117 117 122 121 111 100 89 79 65 51 41 40 28
187 182 177 179 183 181 180 178 177 172 166 166 168 169 167 165 160 156 153 150 147 145 141 135 136 139 140 135 129 126 127 130 132 129 120 106 92 75 63 49 40 28 18
181 181 178 180 183 182 181 180 178 170 167 164 165 164 163 164 160 157 156 154 149 145 142 139 137 142 141 137 135 136 136 140 143 138 136 119 107 93 64 60 46 33 25
182 182 179 180 182 183 182 181 178 171 168 164 164 164 162 164 161 158 157 155 152 152 153 151 141 142 144 147 149 148 150 141 142 149 146 148 154 127 98 59 36 24 12
183 182 180 180 182 183 183 180 177 171 167 164 166 166 165 166 164 159 157 157 159 161 161 156 149 146 147 150 155 163 170 170 165 166 161 154 180 188 189 47 14 12 4
177 180 179 180 180 183 183 181 179 174 171 168 169 169 169 168 165 161 162 165 167 166 161 157 152 148 148 153 159 166 176 190 191 189 181 188 309 263 306 350 334 348 354
175 178 179 181 181 183 183 183 182 176 176 174 173 173 172 172 169 167 167 167 167 166 163 155 152 152 151 144 155 163 181 196 200 206 225 240 18 331 273 271 305 332 340
175 178 181 182 181 182 184 184 183 179 179 178 177 175 175 177 175 169 168 168 169 168 163 162 161 160 151 146 163 173 181 198 218 226 236 244 290 299 300 286 296 326 338
180 179 180 181 181 184 185 184 184 183 182 182 179 178 180 180 179 175 173 171 169 169 167 165 167 172 171 162 159 166 180 213 227 237 235 253 269 298 292 282 287 315 322
182 182 181 181 183 183 183 185 185 185 185 185 182 181 184 183 184 181 179 176 175 171 171 177 176 172 167 155 132 111 98 96 221 254 236 283 301 305 299 292 289 299 311
187 186 186 184 185 185 183 183 186 185 188 186 185 185 187 187 185 185 186 181 181 178 191 181 170 174 155 150 134 122 115 90 51 20 6 340 316 299 282 286 284 294 299
192 190 190 189 187 186 184 183 184 185 189 188 188 189 189 188 187 187 189 184 188 192 189 173 159 129 112 146 133 174 180 53 24 17 349 322 292 296 256 274 287 281 294
202 195 193 193 190 188 185 183 184 187 189 189 191 193 190 190 188 187 188 191 191 182 169 140 115 106 108 89 2 272 276 285 324 293 293 288 296 294 256 297 280 280 293
243 206 198 195 194 192 189 186 186 189 189 189 190 192 193 191 189 184 184 179 170 163 125 135 109 92 74 40 358 1 283 272 292 252 287 294 294 290 268 277 274 285 290
288 227 211 198 199 195 193 190 188 189 190 190 191 192 193 192 187 175 163 145 124 137 103 86 93 318 311 313 326 305 284 283 283 283 297 297 295 295 293 295 281 284 289
297 236 227 208 200 200 196 195 191 189 191 192 194 194 190 187 184 171 168 167 159 154 154 33 221 282 282 299 321 310 303 299 303 308 286 293 298 293 296 298 288 289 295
272 239 226 217 204 200 198 199 195 195 191 194 197 194 189 182 179 176 181 171 178 199 190 233 319 318 315 284 280 291 291 298 302 296 274 282 287 287 302 299 295 299 301
274 236 245 220 207 200 197 198 199 201 198 198 199 197 189 191 183 188 200 211 227 239 267 279 284 291 289 280 279 296 302 305 297 277 280 294 300 305 305 302 305 308 313
264 208 235 224 207 199 196 199 199 201 203 204 204 204 192 191 189 197 215 232 235 248 255 281 283 282 288 292 301 305 302 294 274 261 288 304 309 312 317 315 316 317 322
239 211 219 223 203 196 194 198 197 199 203 203 206 206 199 196 202 207 216 230 224 221 249 265 266 273 284 297 304 304 301 262 257 274 277 299 326 328 318 319 325 332 336
244 214 207 208 196 192 191 191 190 190 194 200 198 196 197 206 208 214 213 211 223 238 257 268 280 288 294 295 295 249 351 167 209 262 289 306 325 333 322 324 329 330 333
241 227 210 199 190 189 193 194 188 177 176 186 183 192 193 209 210 222 212 209 226 252 274 285 293 295 290 284 172 232 212 226 241 282 288 309 324 330 327 331 327 323 325
217 227 216 197 191 195 190 192 184 191 168 178 193 204 204 212 219 224 211 225 247 271 284 297 298 286 172 168 305 330 278 262 276 281 278 315 333 341 329 323 325 330 332
223 222 229 205 204 219 201 189 187 185 172 183 188 205 203 204 219 221 229 235 253 281 297 284 188 175 207 294 304 309 300 289 310 305 302 331 352 349 336 330 328 330 331
239 225 230 219 210 206 193 196 193 191 189 189 184 197 218 202 207 219 230 231 252 280 268 222 200 213 262 281 296 297 292 296 308 303 319 342 355 2 338 342 333 338 337
251 229 225 216 220 204 207 207 203 197 195 185 184 192 197 196 193 207 215 224 264 243 214 194 220 249 287 329 332 339 340 347 360 350 337 342 348 357 351 337 327 344 342
Wind_Speed_850mb
46 53 59 53 50 45 42 39 33 27 28 30 34 35 33 32 33 32 32 35 35 39 38 33 29 27 24 21 18 14 15 17 19 22 25 26 28 30 28 25 22 16 10
49 65 66 60 55 49 45 40 37 31 30 31 35 36 36 36 35 35 35 34 37 38 33 29 25 23 22 20 17 16 17 18 21 25 27 26 25 24 24 24 23 20 19
58 72 70 64 59 53 49 43 38 35 33 31 35 37 38 39 39 40 37 37 37 34 30 27 24 23 21 19 16 14 16 18 21 24 20 17 15 14 14 17 20 23 25
60 76 75 69 63 57 51 46 41 38 36 33 34 37 40 39 39 40 39 39 36 32 28 23 21 19 18 16 15 13 15 21 23 22 16 14 10 6 7 10 16 20 27
69 84 78 73 67 61 56 50 45 43 38 35 35 38 39 40 39 40 40 38 36 32 27 22 19 17 16 15 15 15 15 22 21 17 12 9 6 4 2 3 11 16 22
79 89 83 77 72 63 57 52 48 46 42 38 37 38 39 40 39 38 39 37 34 29 26 21 18 16 15 13 13 13 14 18 20 17 9 1 8 7 5 4 10 15 20
90 87 82 80 74 66 60 55 52 50 46 42 39 39 39 40 39 37 35 32 30 27 23 19 16 13 11 10 9 10 12 17 20 18 10 6 4 4 7 7 11 17 23
90 91 86 81 73 68 63 57 54 51 49 45 41 40 40 41 39 36 33 30 26 22 19 17 13 9 7 7 7 8 10 14 21 24 18 11 11 9 4 9 14 19 24
91 92 89 83 75 70 63 58 55 52 51 48 44 41 41 41 38 35 31 27 22 19 16 13 10 7 6 7 6 6 6 9 13 17 17 14 15 12 11 14 16 20 24
94 90 90 85 81 76 68 59 56 53 50 47 44 42 41 40 38 34 28 24 21 16 11 9 6 6 7 8 12 11 9 4 2 5 6 10 19 22 20 14 17 22 25
89 90 89 89 85 78 71 64 58 52 50 46 43 42 42 41 38 33 27 21 15 11 8 6 6 5 5 11 11 10 7 6 9 8 8 9 14 19 18 12 19 23 27
93 94 93 91 88 83 77 69 62 57 53 49 46 45 42 39 36 32 26 19 14 9 6 5 4 3 7 10 3 5 2 3 9 6 9 6 9 8 10 16 18 25 28
86 96 95 91 88 86 82 75 67 60 54 48 44 41 38 38 37 32 25 18 12 5 4 6 6 10 9 3 3 4 5 6 10 14 15 17 16 6 13 16 20 26 29
52 95 96 92 89 87 82 78 71 63 56 50 45 42 42 40 36 30 22 14 9 8 6 9 5 3 3 8 8 7 5 12 19 14 11 20 22 19 10 18 23 28 33
51 71 92 94 89 87 84 77 70 60 51 45 43 41 39 37 34 28 24 18 12 13 11 7 1 4 7 10 6 12 18 24 27 26 28 26 25 20 18 22 30 34 36
67 47 74 88 87 82 77 71 62 55 46 41 39 37 38 32 34 31 23 18 14 15 7 1 7 7 10 11 12 15 18 23 31 30 27 21 19 19 27 34 24 29 36
57 52 57 86 83 78 70 62 56 51 48 43 38 37 35 31 30 28 20 11 10 9 5 4 3 4 7 13 19 23 27 32 32 28 29 28 29 22 25 27 29 36 41
38 59 54 89 86 76 69 63 56 49 44 39 36 35 36 31 25 21 16 17 11 13 7 10 10 10 15 20 20 27 32 26 23 28 29 26 28 34 27 28 32 39 41
21 68 67 89 89 78 69 64 57 50 43 38 35 35 38 30 25 22 19 20 21 13 13 15 16 20 26 29 33 34 29 22 16 17 22 22 18 23 28 32 38 41 38
25 55 70 101 91 78 67 62 54 49 47 42 37 36 38 30 30 25 22 16 15 12 17 17 21 26 30 32 31 28 19 17 20 20 16 15 21 26 33 39 38 34 32
30 62 106 95 87 80 74 66 57 49 46 44 39 30 37 34 30 28 26 21 16 15 20 25 26 30 31 29 17 6 3 9 13 12 16 20 28 34 36 33 28 27 29
25 44 80 89 88 85 84 75 62 52 44 44 39 32 30 30 29 28 21 22 15 16 21 24 23 21 16 6 4 4 4 12 20 23 27 24 34 34 28 26 27 31 37
31 39 65 91 94 91 77 62 55 52 45 41 42 38 36 28 28 26 20 18 18 17 20 20 17 7 4 3 4 4 5 8 17 23 20 23 31 23 21 25 31 37 47
39 42 56 96 90 79 79 70 64 64 58 59 48 38 37 30 32 24 19 21 21 21 20 9 4 6 4 5 10 10 11 13 9 14 16 24 27 20 19 28 30 39 45
30 53 53 66 77 76 85 72 62 67 64 68 49 46 44 42 34 24 20 18 18 19 8 7 8 5 5 7 9 10 13 12 14 14 23 36 25 26 20 29 27 45 50
34 47 62 69 71 81 85 69 62 66 66 55 55 56 57 44 34 29 21 17 17 11 9 10 7 7 4 8 10 9 8 7 10 12 20 30 37 38 26 36 31 48 53
Wind_Direction_850mb
175 185 177 177 181 181 178 175 176 174 170 171 172 172 169 164 156 153 150 145 143 143 144 141 135 131 132 132 130 125 117 117 122 121 111 100 89 79 65 51 41 40 28
187 182 177 179 183 181 180 178 177 172 166 166 168 169 167 165 160 156 153 150 147 145 141 135 136 139 140 135 129 126 127 130 132 129 120 106 92 75 63 49 40 28 18
181 181 178 180 183 182 181 180 178 170 167 164 165 164 163 164 160 157 156 154 149 145 142 139 137 142 141 137 135 136 136 140 143 138 136 119 107 93 64 60 46 33 25
182 182 179 180 182 183 182 181 178 171 168 164 164 164 162 164 161 158 157 155 152 152 153 151 141 142 144 147 149 148 150 141 142 149 146 148 154 127 98 59 36 24 12
183 182 180 180 182 183 183 180 177 171 167 164 166 166 165 166 164 159 157 157 159 161 161 156 149 146 147 150 155 163 170 170 165 166 161 154 180 188 189 47 14 12 4
177 180 179 180 180 183 183 181 179 174 171 168 169 169 169 168 165 161 162 165 167 166 161 157 152 148 148 153 159 166 176 190 191 189 181 188 309 263 306 350 334 348 354
175 178 179 181 181 183 183 183 182 176 176 174 173 173 172 172 169 167 167 167 167 166 163 155 152 152 151 144 155 163 181 196 200 206 225 240 18 331 273 271 305 332 340
175 178 181 182 181 182 184 184 183 179 179 178 177 175 175 177 175 169 168 168 169 168 163 162 161 160 151 146 163 173 181 198 218 226 236 244 290 299 300 286 296 326 338
180 179 180 181 181 184 185 184 184 183 182 182 179 178 180 180 179 175 173 171 169 169 167 165 167 172 171 162 159 166 180 213 227 237 235 253 269 298 292 282 287 315 322
182 182 181 181 183 183 183 185 185 185 185 185 182 181 184 183 184 181 179 176 175 171 171 177 176 172 167 155 132 111 98 96 221 254 236 283 301 305 299 292 289 299 311
187 186 186 184 185 185 183 183 186 185 188 186 185 185 187 187 185 185 186 181 181 178 191 181 170 174 155 150 134 122 115 90 51 20 6 340 316 299 282 286 284 294 299
192 190 190 189 187 186 184 183 184 185 189 188 188 189 189 188 187 187 189 184 188 192 189 173 159 129 112 146 133 174 180 53 24 17 349 322 292 296 256 274 287 281 294
202 195 193 193 190 188 185 183 184 187 189 189 191 193 190 190 188 187 188 191 191 182 169 140 115 106 108 89 2 272 276 285 324 293 293 288 296 294 256 297 280 280 293
243 206 198 195 194 192 189 186 186 189 189 189 190 192 193 191 189 184 184 179 170 163 125 135 109 92 74 40 358 1 283 272 292 252 287 294 294 290 268 277 274 285 290
288 227 211 198 199 195 193 190 188 189 190 190 191 192 193 192 187 175 163 145 124 137 103 86 93 318 311 313 326 305 284 283 283 283 297 297 295 295 293 295 281 284 289
297 236 227 208 200 200 196 195 191 189 191 192 194 194 190 187 184 171 168 167 159 154 154 33 221 282 282 299 321 310 303 299 303 308 286 293 298 293 296 298 288 289 295
272 239 226 217 204 200 198 199 195 195 191 194 197 194 189 182 179 176 181 171 178 199 190 233 319 318 315 284 280 291 291 298 302 296 274 282 287 287 302 299 295 299 301
274 236 245 220 207 200 197 198 199 201 198 198 199 197 189 191 183 188 200 211 227 239 267 279 284 291 289 280 279 296 302 305 297 277 280 294 300 305 305 302 305 308 313
264 208 235 224 207 199 196 199 199 201 203 204 204 204 192 191 189 197 215 232 235 248 255 281 283 282 288 292 301 305 302 294 274 261 288 304 309 312 317 315 316 317 322
239 211 219 223 203 196 194 198 197 199 203 203 206 206 199 196 202 207 216 230 224 221 249 265 266 273 284 297 304 304 301 262 257 274 277 299 326 328 318 319 325 332 336
244 214 207 208 196 192 191 191 190 190 194 200 198 196 197 206 208 214 213 211 223 238 257 268 280 288 294 295 295 249 351 167 209 262 289 306 325 333 322 324 329 330 333
241 227 210 199 190 189 193 194 188 177 176 186 183 192 193 209 210 222 212 209 226 252 274 285 293 295 290 284 172 232 212 226 241 282 288 309 324 330 327 331 327 323 325
217 227 216 197 191 195 190 192 184 191 168 178 193 204 204 212 219 224 211 225 247 271 284 297 298 286 172 168 305 330 278 262 276 281 278 315 333 341 329 323 325 330 332
223 222 229 205 204 219 201 189 187 185 172 183 188 205 203 204 219 221 229 235 253 281 297 284 188 175 207 294 304 309 300 289 310 305 302 331 352 349 336 330 328 330 331
239 225 230 219 210 206 193 196 193 191 189 189 184 197 218 202 207 219 230 231 252 280 268 222 200 213 262 281 296 297 292 296 308 303 319 342 355 2 338 342 333 338 337
251 229 225 216 220 204 207 207 203 197 195 185 184 192 197 196 193 207 215 224 264 243 214 194 220 249 287 329 332 339 340 347 360 350 337 342 348 357 351 337 327 344 342